Torna al catalogo

COSMOS 1174 DEB

AttivoLEO
NORAD 12354·DEBRIS·🇷🇺 Russia

Lanciato Apr 18, 1980 da Baikonur Cosmodrome

Loading…

Prossimi Passaggi (prossime 24 ore)

TLE

AggiornatoSource: Space-Track

Epoca: Sep 14, 2026, 11:29 UTC

1 12354U 80030Y   26257.47901944  .00005504  00000-0  21430-3 0  9993
2 12354  66.0979 294.2735 0289986 172.3358 188.2353 14.95906984410377

Traccia COSMOS 1174 DEB in tempo reale con AllMySat

Download on the App Store